Location: Cerezo de Arriba
(41.2389°N, 3.5585°W)
Time: 03:42:58
(UTC+00:00)

Helios 1A - Pass Details

Date: 19 May 2025
Orbit: 544 x 570 km, 98.3° (Epoch: 03 June)

Event Time Altitude Azimuth Distance (km) Brightness Sun altitude
Rises 20:44:17 0° 13° (NNE) 2,781 6.8 -12.3°
Reaches altitude 10° 20:46:27 10° 14° (NNE) 1,876 5.9 -12.6°
Maximum altitude 20:50:31 84° 104° (ESE) 574 2.8 -13.2°
Drops below altitude 10° 20:54:31 10° 192° (SSW) 1,847 5.2 -13.8°
Enters shadow 20:55:42 - 193° (SSW) 2,342 5.7 -13.9°
